KG2V Weather Reports


time (UTC)temp
C
wind
direction
speed
KPH
gust
KPH
rain 1hr
cm
rain 24hr
cm
rain mn
cm
humidity
%
barometer
mb
20260504204747 23 253 6.4 6.4 0.00 0.00 0.00 39 999.0
20260504204245 23 211 4.8 6.4 0.00 0.00 0.00 36 999.1
20260504203744 23 157 8.0 11.3 0.00 0.00 0.00 36 999.1
20260504203241 23 193 6.4 9.7 0.00 0.00 0.00 37 999.1
20260504202741 23 242 1.6 3.2 0.00 0.00 0.00 38 999.4
20260504202238 23 207 4.8 9.7 0.00 0.00 0.00 39 999.1
20260504201735 23 285 4.8 6.4 0.00 0.00 0.00 39 999.1
20260504201232 22 190 8.0 11.3 0.00 0.00 0.00 39 999.4
20260504200730 22 274 6.4 9.7 0.00 0.00 0.00 40 999.4
20260504200226 22 207 12.9 16.1 0.00 0.00 0.00 38 999.3
20260504195722 23 208 16.1 20.9 0.00 0.00 0.00 38 999.4
20260504195218 23 215 11.3 16.1 0.00 0.00 0.00 38 999.5
20260504194716 22 192 4.8 4.8 0.00 0.00 0.00 41 999.6
20260504194212 22 213 11.3 14.5 0.00 0.00 0.00 42 999.7
20260504193708 22 196 8.0 14.5 0.00 0.00 0.00 40 999.9
20260504193206 23 226 6.4 9.7 0.00 0.00 0.00 40 999.8
20260504192704 22 244 6.4 9.7 0.00 0.00 0.00 40 999.9
20260504192201 22 224 4.8 6.4 0.00 0.00 0.00 40 1000.0
20260504191700 22 183 6.4 9.7 0.00 0.00 0.00 39 1000.0
20260504191156 22 247 4.8 6.4 0.00 0.00 0.00 40 1000.2
20260504190652 22 190 8.0 14.5 0.00 0.00 0.00 40 1000.6
20260504190149 22 223 9.7 12.9 0.00 0.00 0.00 39 1000.3
20260504185645 22 272 3.2 6.4 0.00 0.00 0.00 41 1000.2
20260504185142 22 268 3.2 4.8 0.00 0.00 0.00 41 1000.1
20260504184638 22 242 4.8 6.4 0.00 0.00 0.00 42 1000.5
20260504184133 22 189 4.8 6.4 0.00 0.00 0.00 43 1000.5
20260504183630 22 274 8.0 9.7 0.00 0.00 0.00 44 1000.7
20260504183128 22 242 4.8 6.4 0.00 0.00 0.00 42 1000.6
20260504182625 22 225 12.9 16.1 0.00 0.00 0.00 44 1000.8
20260504182123 22 205 9.7 14.5 0.00 0.00 0.00 43 1000.8
20260504181620 21 261 3.2 3.2 0.00 0.00 0.00 46 1000.9
20260504181117 21 253 6.4 9.7 0.00 0.00 0.00 46 1000.9
20260504180617 22 183 9.7 14.5 0.00 0.00 0.00 45 1000.8
20260504180115 21 200 3.2 4.8 0.00 0.00 0.00 46 1000.9
20260504175612 21 218 3.2 3.2 0.00 0.00 0.00 49 1000.9
20260504175108 21 253 6.4 6.4 0.00 0.00 0.00 47 1001.2
20260504174607 21 222 9.7 11.3 0.00 0.00 0.00 45 1000.9
20260504174103 21 224 6.4 9.7 0.00 0.00 0.00 46 1001.1
20260504173559 20 164 4.8 4.8 0.00 0.00 0.00 46 1000.9
20260504173058 21 202 11.3 14.5 0.00 0.00 0.00 47 1001.2
20260504172553 20 226 3.2 4.8 0.00 0.00 0.00 50 1001.0
20260504172050 21 192 3.2 4.8 0.00 0.00 0.00 50 1001.1
20260504171547 21 202 9.7 16.1 0.00 0.00 0.00 47 1001.2
20260504171044 20 208 1.6 1.6 0.00 0.00 0.00 47 1001.2
20260504170539 20 264 6.4 9.7 0.00 0.00 0.00 48 1001.1
20260504150923 17 222 6.4 9.7 0.00 0.00 0.00 53 1002.2
20260504150420 17 223 1.6 3.2 0.00 0.00 0.00 52 1002.2
20260504140847 16 241 9.7 11.3 0.00 0.00 0.00 53 1002.3
20260504140343 15 216 8.0 11.3 0.00 0.00 0.00 53 1002.3
20260504130812 15 266 3.2 6.4 0.00 0.00 0.00 54 1002.7
20260504130308 14 211 6.4 11.3 0.00 0.00 0.00 55 1002.7
20260504120231 10 174 0.0 1.6 0.00 0.00 0.00 65 1003.2
20260504110659 10 194 0.0 1.6 0.00 0.00 0.00 65 1003.0
20260504110155 10 153 0.0 0.0 0.00 0.00 0.00 66 1003.0
20260504100119 11 201 1.6 1.6 0.00 0.00 0.00 59 1002.6
20260504081512 10 197 3.2 3.2 0.00 0.00 0.00 59 1003.3
20260504081008 10 183 3.2 4.8 0.00 0.00 0.00 59 1003.4
20260504080504 10 218 3.2 4.8 0.00 0.00 0.00 60 1003.5
20260504050311 8 179 0.0 0.0 0.00 0.00 0.00 66 1004.7
20260504045809 8 179 0.0 0.0 0.00 0.00 0.00 67 1004.6
20260504045308 8 179 0.0 0.0 0.00 0.00 0.00 65 1004.7
20260504044806 9 179 0.0 0.0 0.00 0.00 0.00 64 1004.8
20260504044303 9 179 0.0 0.0 0.00 0.00 0.00 63 1004.9
20260504043800 10 179 0.0 0.0 0.00 0.00 0.00 62 1004.7
20260504043257 9 178 0.0 1.6 0.00 0.00 0.00 62 1004.6
20260504042755 9 183 0.0 1.6 0.00 0.00 0.00 63 1004.8
20260504042251 10 173 0.0 0.0 0.00 0.00 0.00 62 1004.6
20260504041747 10 174 0.0 0.0 0.00 0.00 0.00 60 1004.5
20260504041243 10 187 0.0 0.0 0.00 0.00 0.00 60 1004.7
20260504040739 10 186 0.0 0.0 0.00 0.00 0.00 62 1004.6
20260504040237 10 176 0.0 0.0 0.00 0.00 0.00 62 1004.7
20260504035733 10 181 0.0 0.0 0.00 0.00 0.00 60 1004.9
20260504035231 10 181 0.0 0.0 0.00 0.00 0.00 60 1004.7
20260504034729 10 179 0.0 0.0 0.00 0.00 0.00 60 1004.7
20260504034226 11 186 0.0 0.0 0.00 0.00 0.00 58 1004.8
20260504033723 11 173 0.0 1.6 0.00 0.00 0.00 58 1004.6
20260504033220 11 171 0.0 0.0 0.00 0.00 0.00 57 1004.8
20260504032712 11 199 1.6 1.6 0.00 0.00 0.00 55 1004.8
20260504032209 11 192 1.6 1.6 0.00 0.00 0.00 55 1004.6
20260504031705 11 193 4.8 4.8 0.00 0.00 0.00 54 1004.7
20260504031203 12 220 3.2 3.2 0.00 0.00 0.00 55 1004.8
20260504030658 12 194 1.6 1.6 0.00 0.00 0.00 54 1004.8
20260504030155 12 221 1.6 3.2 0.00 0.00 0.00 55 1004.8
20260504025652 12 212 1.6 3.2 0.00 0.00 0.00 54 1004.7
20260504025148 12 221 1.6 3.2 0.00 0.00 0.00 55 1004.7
20260504024646 12 238 4.8 4.8 0.00 0.00 0.00 54 1004.6
20260504024142 12 188 3.2 3.2 0.00 0.00 0.00 54 1004.8
20260504023639 11 204 4.8 6.4 0.00 0.00 0.00 54 1004.8
20260504023136 11 185 3.2 4.8 0.00 0.00 0.00 54 1005.1
20260504022632 11 227 3.2 4.8 0.00 0.00 0.00 55 1004.8
20260504022128 11 237 4.8 6.4 0.00 0.00 0.00 56 1004.9
20260504021626 11 227 1.6 1.6 0.00 0.00 0.00 57 1005.0
20260504021122 11 204 1.6 1.6 0.00 0.00 0.00 56 1005.0
20260504020620 11 189 3.2 3.2 0.00 0.00 0.00 55 1004.9
20260504020115 11 191 3.2 4.8 0.00 0.00 0.00 56 1005.0
20260504015612 11 212 3.2 4.8 0.00 0.00 0.00 56 1005.1
20260504015109 11 205 4.8 4.8 0.00 0.00 0.00 56 1005.1
20260504014604 11 269 6.4 6.4 0.00 0.00 0.00 55 1004.9
20260504014101 11 271 4.8 6.4 0.00 0.00 0.00 56 1005.1
20260504013559 11 163 1.6 1.6 0.00 0.00 0.00 60 1005.2
20260504013056 11 235 4.8 6.4 0.00 0.00 0.00 57 1005.1
20260504012553 11 193 4.8 6.4 0.00 0.00 0.00 59 1004.9
20260504012051 11 247 4.8 4.8 0.00 0.00 0.00 60 1005.1
20260504011548 11 207 3.2 4.8 0.00 0.00 0.00 62 1005.3
20260504011044 11 210 1.6 1.6 0.00 0.00 0.00 65 1005.2
20260504010539 11 182 0.0 0.0 0.00 0.00 0.00 65 1005.2
20260504010036 10 186 1.6 1.6 0.00 0.00 0.00 67 1005.5
20260504005533 10 199 1.6 1.6 0.00 0.00 0.00 67 1005.4
20260504005030 11 198 0.0 0.0 0.00 0.00 0.00 66 1005.5
20260504004528 10 207 1.6 1.6 0.00 0.00 0.00 66 1005.4
20260504004025 10 200 0.0 0.0 0.00 0.00 0.00 67 1005.3
20260504003521 10 237 3.2 3.2 0.00 0.00 0.00 66 1005.2
20260504003018 10 177 0.0 1.6 0.00 0.00 0.00 67 1005.3
20260504002515 10 147 1.6 3.2 0.00 0.00 0.00 69 1005.3
20260504002012 10 185 0.0 0.0 0.00 0.00 0.00 70 1005.5
20260504001509 10 188 0.0 0.0 0.00 0.00 0.00 72 1005.7
20260504001006 10 193 3.2 3.2 0.00 0.00 0.00 72 1005.7
20260504000503 10 201 0.0 0.0 0.00 0.00 0.00 73 1005.9
20260504000000 10 190 0.0 1.6 0.00 0.00 0.00 74 1005.7
20260503235458 10 190 0.0 1.6 0.00 0.00 0.00 73 1005.6
20260503234955 10 168 1.6 1.6 0.00 0.00 0.00 73 1005.7
20260503234452 10 214 1.6 1.6 0.00 0.00 0.00 73 1005.6
20260503233950 10 197 1.6 1.6 0.00 0.00 0.00 72 1005.4
20260503233447 10 189 3.2 4.8 0.00 0.00 0.00 72 1005.5
20260503232943 10 228 1.6 3.2 0.00 0.00 0.00 71 1005.6
20260503232440 10 177 1.6 3.2 0.00 0.00 0.00 70 1005.8
20260503231938 10 224 3.2 4.8 0.00 0.00 0.00 70 1005.3
20260503231435 11 250 4.8 4.8 0.00 0.00 0.00 67 1005.5
20260503230931 11 256 8.0 11.3 0.00 0.00 0.00 65 1005.5
20260503230428 11 216 6.4 9.7 0.00 0.00 0.00 61 1005.5
20260503225926 11 177 8.0 11.3 0.00 0.00 0.00 58 1005.5
20260503225422 12 255 8.0 9.7 0.00 0.00 0.00 56 1005.3
20260503224918 11 287 4.8 6.4 0.00 0.00 0.00 57 1005.3
20260503224415 11 187 6.4 6.4 0.00 0.00 0.00 57 1005.2
20260503223913 11 187 9.7 12.9 0.00 0.00 0.00 57 1005.1
20260503223411 11 207 8.0 12.9 0.00 0.00 0.00 56 1004.9
20260503222910 11 210 8.0 9.7 0.00 0.00 0.00 55 1005.1
20260503222409 11 251 6.4 9.7 0.00 0.00 0.00 55 1004.8
20260503221907 12 211 4.8 4.8 0.00 0.00 0.00 55 1005.0
20260503221405 12 269 4.8 4.8 0.00 0.00 0.00 54 1005.0
20260503220901 12 178 14.5 17.7 0.00 0.00 0.00 52 1005.1
20260503220358 12 246 6.4 6.4 0.00 0.00 0.00 52 1005.0
20260503215855 12 192 9.7 12.9 0.00 0.00 0.00 50 1005.2
20260503215352 12 185 9.7 14.5 0.00 0.00 0.00 50 1004.9
20260503214849 12 253 6.4 9.7 0.00 0.00 0.00 50 1005.0
20260503214347 12 292 4.8 4.8 0.00 0.00 0.00 50 1004.8
20260503213844 13 163 4.8 4.8 0.00 0.00 0.00 50 1005.0
20260503213342 12 250 4.8 6.4 0.00 0.00 0.00 50 1005.2
20260503212838 12 262 4.8 6.4 0.00 0.00 0.00 50 1005.1
20260503212336 12 230 8.0 9.7 0.00 0.00 0.00 51 1004.9
20260503211833 12 264 6.4 6.4 0.00 0.00 0.00 50 1005.0
20260503211330 12 270 4.8 4.8 0.00 0.00 0.00 51 1005.2
20260503210826 12 217 6.4 9.7 0.00 0.00 0.00 49 1005.1
20260503210323 12 225 4.8 4.8 0.00 0.00 0.00 51 1005.1
20260503205818 12 184 6.4 11.3 0.00 0.00 0.00 48 1005.0
20260503205315 13 237 8.0 11.3 0.00 0.00 0.00 47 1005.2